When you browse on this site, cookies collect data to enhance your experience and personalize the content and advertising you see.
Visit our Privacy Policy to learn more. By continuing to use the site, you agree to this use of cookies and data.

Météo par heure à Erfurt

Ce jour, 21 Septembre, Lundi

Heure Température Précipitation Vent Pression Humidité
00:00 +12°C° 0 mm 1 m/s 745 mmHg 77%
01:00 +11°C° 0 mm 0 m/s 745 mmHg 79%
02:00 +11°C° 0 mm 0 m/s 745 mmHg 80%
03:00 +10°C° 0 mm 0 m/s 745 mmHg 82%
04:00 +10°C° 0 mm 0 m/s 744 mmHg 83%
05:00 +10°C° 0 mm 0 m/s 745 mmHg 82%
06:00 +10°C° 0 mm 0 m/s 745 mmHg 82%
07:00 +12°C° 0 mm 1 m/s 745 mmHg 81%
08:00 +14°C° 0 mm 1 m/s 745 mmHg 72%
09:00 +16°C° 0 mm 1 m/s 745 mmHg 64%
10:00 +18°C° 0 mm 2 m/s 745 mmHg 55%
11:00 +20°C° 0 mm 2 m/s 745 mmHg 51%
12:00 +21°C° 0 mm 2 m/s 745 mmHg 47%
13:00 +24°C° 0 mm 2 m/s 744 mmHg 43%
14:00 +24°C° 0 mm 2 m/s 744 mmHg 43%
15:00 +24°C° 0 mm 2 m/s 744 mmHg 44%
16:00 +24°C° 0 mm 2 m/s 743 mmHg 44%
17:00 +22°C° 0 mm 1 m/s 743 mmHg 51%
18:00 +20°C° 0 mm 1 m/s 743 mmHg 58%
19:00 +16°C° 0 mm 0 m/s 743 mmHg 65%
20:00 +15°C° 0 mm 0 m/s 743 mmHg 67%
21:00 +15°C° 0 mm 0 m/s 743 mmHg 69%
22:00 +14°C° 0 mm 0 m/s 743 mmHg 72%
23:00 +14°C° 0 mm 0 m/s 743 mmHg 73%

Demain, 22 Septembre, Mardi

Heure Température Précipitation Vent Pression Humidité
00:00 +14°C° 0 mm 0 m/s 743 mmHg 74%
01:00 +14°C° 0 mm 1 m/s 742 mmHg 76%
02:00 +14°C° 0 mm 1 m/s 742 mmHg 77%
03:00 +14°C° 0 mm 1 m/s 742 mmHg 78%
04:00 +14°C° 0 mm 1 m/s 742 mmHg 79%
05:00 +14°C° 0 mm 1 m/s 742 mmHg 79%
06:00 +14°C° 0 mm 1 m/s 742 mmHg 79%
07:00 +14°C° 0 mm 1 m/s 742 mmHg 79%
08:00 +18°C° 0 mm 1 m/s 742 mmHg 71%
09:00 +20°C° 0 mm 1 m/s 742 mmHg 63%
10:00 +23°C° 0 mm 2 m/s 742 mmHg 55%
11:00 +24°C° 0 mm 2 m/s 741 mmHg 51%
12:00 +25°C° 0 mm 2 m/s 741 mmHg 47%
13:00 +26°C° 0 mm 3 m/s 741 mmHg 43%
14:00 +26°C° 0 mm 3 m/s 740 mmHg 44%
15:00 +26°C° 0 mm 3 m/s 740 mmHg 46%
16:00 +26°C° 0 mm 2 m/s 739 mmHg 47%
17:00 +24°C° 0 mm 2 m/s 739 mmHg 55%
18:00 +21°C° 0 mm 2 m/s 739 mmHg 62%
19:00 +20°C° 0 mm 1 m/s 739 mmHg 70%
20:00 +19°C° 0 mm 1 m/s 738 mmHg 73%
21:00 +19°C° 0 mm 1 m/s 738 mmHg 76%
22:00 +18°C° 0 mm 1 m/s 738 mmHg 79%
23:00 +18°C° 0 mm 1 m/s 738 mmHg 81%

Après-demain, 23 Septembre, Mercredi

Heure Température Précipitation Vent Pression Humidité
00:00 +16°C° 0 mm 1 m/s 738 mmHg 83%
01:00 +16°C° 0 mm 1 m/s 738 mmHg 85%
02:00 +16°C° 0 mm 1 m/s 738 mmHg 85%
03:00 +15°C° 0 mm 1 m/s 738 mmHg 85%
04:00 +15°C° 0 mm 1 m/s 737 mmHg 84%
05:00 +15°C° 0 mm 1 m/s 737 mmHg 83%
06:00 +16°C° 0 mm 1 m/s 738 mmHg 81%
07:00 +16°C° 0 mm 1 m/s 738 mmHg 79%
08:00 +18°C° 0 mm 2 m/s 738 mmHg 72%
09:00 +20°C° 0 mm 2 m/s 738 mmHg 64%
10:00 +22°C° 0 mm 3 m/s 738 mmHg 56%
11:00 +24°C° 0 mm 3 m/s 738 mmHg 52%
12:00 +25°C° 0 mm 3 m/s 738 mmHg 47%
13:00 +26°C° 0 mm 4 m/s 738 mmHg 42%
14:00 +26°C° 0 mm 3 m/s 737 mmHg 42%
15:00 +25°C° 0 mm 3 m/s 737 mmHg 42%
16:00 +25°C° 0 mm 3 m/s 737 mmHg 43%
17:00 +22°C° 0 mm 3 m/s 737 mmHg 49%
18:00 +20°C° 0 mm 2 m/s 737 mmHg 56%
19:00 +18°C° 0 mm 2 m/s 737 mmHg 63%
20:00 +18°C° 0 mm 2 m/s 737 mmHg 67%
21:00 +17°C° 0 mm 2 m/s 737 mmHg 71%
22:00 +16°C° 0 mm 3 m/s 737 mmHg 74%
23:00 +16°C° 0 mm 3 m/s 737 mmHg 78%

24 Septembre, Jeudi

Heure Température Précipitation Vent Pression Humidité
00:00 +16°C° 0 mm 3 m/s 737 mmHg 82%
01:00 +16°C° 0 mm 3 m/s 737 mmHg 85%
02:00 +16°C° 0 mm 3 m/s 736 mmHg 86%
03:00 +16°C° 0 mm 3 m/s 736 mmHg 86%
04:00 +15°C° 0 mm 4 m/s 736 mmHg 86%
05:00 +15°C° 0 mm 4 m/s 736 mmHg 84%
06:00 +16°C° 0 mm 5 m/s 736 mmHg 82%
07:00 +16°C° 0 mm 5 m/s 736 mmHg 80%
08:00 +17°C° 0.1 mm 6 m/s 737 mmHg 76%
09:00 +19°C° 0.1 mm 6 m/s 737 mmHg 72%
10:00 +20°C° 0.1 mm 6 m/s 738 mmHg 68%
11:00 +20°C° 0.3 mm 6 m/s 738 mmHg 66%
12:00 +21°C° 0.3 mm 5 m/s 738 mmHg 64%
13:00 +21°C° 0.3 mm 4 m/s 738 mmHg 62%
14:00 +21°C° 0.2 mm 4 m/s 738 mmHg 62%
15:00 +21°C° 0.2 mm 4 m/s 738 mmHg 63%
16:00 +20°C° 0.2 mm 3 m/s 738 mmHg 63%
17:00 +19°C° 0.4 mm 3 m/s 738 mmHg 72%
18:00 +18°C° 0.4 mm 3 m/s 738 mmHg 80%
19:00 +17°C° 0.4 mm 3 m/s 737 mmHg 88%
20:00 +16°C° 0.3 mm 3 m/s 737 mmHg 88%
21:00 +16°C° 0.3 mm 3 m/s 737 mmHg 88%
22:00 +16°C° 0.3 mm 3 m/s 737 mmHg 89%
23:00 +15°C° 1.6 mm 4 m/s 737 mmHg 89%

25 Septembre, Vendredi

Heure Température Précipitation Vent Pression Humidité
00:00 +15°C° 1.6 mm 4 m/s 736 mmHg 89%
01:00 +14°C° 1.6 mm 5 m/s 736 mmHg 89%
02:00 +14°C° 0.3 mm 4 m/s 736 mmHg 88%
03:00 +14°C° 0.3 mm 4 m/s 735 mmHg 87%
04:00 +13°C° 0.3 mm 3 m/s 735 mmHg 87%
05:00 +13°C° 0.3 mm 3 m/s 735 mmHg 86%
06:00 +13°C° 0.3 mm 4 m/s 735 mmHg 86%
07:00 +13°C° 0.3 mm 4 m/s 735 mmHg 86%
08:00 +13°C° 0 mm 4 m/s 735 mmHg 81%
09:00 +13°C° 0 mm 5 m/s 735 mmHg 75%
10:00 +13°C° 0 mm 6 m/s 736 mmHg 70%
11:00 +13°C° 0 mm 6 m/s 735 mmHg 62%
12:00 +14°C° 0 mm 6 m/s 735 mmHg 55%
13:00 +14°C° 0 mm 6 m/s 735 mmHg 47%
14:00 +14°C° 0 mm 6 m/s 735 mmHg 47%
15:00 +14°C° 0 mm 5 m/s 735 mmHg 47%
16:00 +14°C° 0 mm 5 m/s 734 mmHg 47%
17:00 +13°C° 0 mm 4 m/s 734 mmHg 50%
18:00 +12°C° 0 mm 4 m/s 734 mmHg 54%
19:00 +10°C° 0 mm 4 m/s 734 mmHg 57%
20:00 +10°C° 0 mm 4 m/s 735 mmHg 58%
21:00 +10°C° 0 mm 4 m/s 735 mmHg 59%
22:00 +8°C° 0 mm 5 m/s 735 mmHg 59%
23:00 +8°C° 0 mm 5 m/s 735 mmHg 63%

26 Septembre, Samedi

Heure Température Précipitation Vent Pression Humidité
00:00 +7°C° 0 mm 6 m/s 735 mmHg 67%
01:00 +7°C° 0 mm 6 m/s 734 mmHg 71%
02:00 +7°C° 0 mm 6 m/s 734 mmHg 73%
03:00 +7°C° 0 mm 5 m/s 734 mmHg 75%
04:00 +7°C° 0 mm 5 m/s 734 mmHg 76%
05:00 +7°C° 0 mm 5 m/s 734 mmHg 76%
06:00 +6°C° 0 mm 5 m/s 734 mmHg 76%
07:00 +6°C° 0 mm 5 m/s 734 mmHg 76%
08:00 +7°C° 0 mm 6 m/s 734 mmHg 74%
09:00 +8°C° 0 mm 7 m/s 734 mmHg 72%
10:00 +8°C° 0 mm 7 m/s 733 mmHg 69%
11:00 +8°C° 0.1 mm 7 m/s 734 mmHg 73%
12:00 +8°C° 0.1 mm 7 m/s 734 mmHg 77%
13:00 +8°C° 0.1 mm 7 m/s 734 mmHg 81%
14:00 +8°C° 0.1 mm 7 m/s 734 mmHg 80%
15:00 +8°C° 0.1 mm 7 m/s 733 mmHg 79%
16:00 +8°C° 0.1 mm 7 m/s 733 mmHg 78%
17:00 +8°C° 0.2 mm 7 m/s 734 mmHg 81%
18:00 +8°C° 0.2 mm 7 m/s 734 mmHg 83%
19:00 +6°C° 0.2 mm 7 m/s 734 mmHg 85%
20:00 +6°C° 0.1 mm 7 m/s 734 mmHg 85%
21:00 +6°C° 0.1 mm 7 m/s 734 mmHg 84%
22:00 +6°C° 0.1 mm 7 m/s 734 mmHg 83%
23:00 +7°C° 0 mm 6 m/s 734 mmHg 84%
Voir plus